Kenansville, NC

1:11 PM EST on December 07, 2019 (GMT -0500)
Duplin County

Weather History for KDPL - November, 2019

Change the Weather History Date:

Friday, November 22, 2019

  Actual Average (KOAJ) Record (KOAJ)
Temperature  
Mean Temperature 54 °F -  
Max Temperature 66 °F 61 °F 77 °F (1999)
Min Temperature 41 °F 39 °F 17 °F (2000)
Degree Days  
Heating Degree Days 12    
Growing Degree Days 4 (Base 50)    
Moisture  
Dew Point 47 °F    
Average Humidity 79    
Maximum Humidity 100    
Minimum Humidity 52    
Precipitation  
Precipitation 0.00 in - - ()
Sea Level Pressure  
Sea Level Pressure 30.06 in    
Wind  
Wind Speed 3 mph (SW)    
Max Wind Speed 16 mph    
Max Gust Speed 21 mph    
Visibility 8 miles    
Events      
Averages and records for this station are not official NWS values.
T = Trace of Precipitation, MM = Missing Value Source: NWS Daily Summary

Daily Weather History Graph

Daily Weather History Graph

Search for Another Location

Airport or City:

Astronomy

Nov. 22, 2019 Rise Set
Actual Time 6:52 AM EST 5:02 PM EST
Civil Twilight 6:25 AM EST 5:30 PM EST
Nautical Twilight 5:54 AM EST 6:00 PM EST
Astronomical Twilight 5:24 AM EST 6:31 PM EST
Moon 2:10 AM EST (11/22) 2:49 PM EST (11/22)
Length of Visible Light 11h 04m
Length of Day
10h 09m
Waning Crescent, 20% of the Moon is Illuminated
Nov 22
Waning Crescent
Nov 26
New
Dec 4
First Quarter
Dec 12
Full
Dec 18
Last Quarter

Hourly Weather History & Observations

Time (EST) Temp. Windchill Dew Point Humidity Pressure Visibility Wind Dir Wind Speed Gust Speed Precip Events Conditions
12:15 AM 41.0 °F - 41.0 °F 100% 30.17 in 5.0 mi Calm Calm - N/A   Clear
12:35 AM 41.0 °F - 39.2 °F 93% 30.16 in 5.0 mi Calm Calm - N/A   Clear
12:55 AM 42.8 °F - 41.0 °F 93% 30.16 in 7.0 mi Calm Calm - N/A   Clear
1:35 AM 41.0 °F - 41.0 °F 100% 30.15 in 4.0 mi Calm Calm - N/A   Clear
1:55 AM 41.0 °F - 41.0 °F 100% 30.15 in 4.0 mi Calm Calm - N/A   Clear
2:35 AM 41.0 °F - 41.0 °F 100% 30.14 in 5.0 mi Calm Calm - N/A   Clear
2:55 AM 41.0 °F - 41.0 °F 100% 30.13 in 4.0 mi Calm Calm - N/A   Scattered Clouds
3:15 AM 41.0 °F - 41.0 °F 100% 30.13 in 4.0 mi Calm Calm - N/A   Mostly Cloudy
3:35 AM 42.8 °F - 42.8 °F 100% 30.12 in 5.0 mi Calm Calm - N/A   Overcast
3:55 AM 44.6 °F - 42.8 °F 93% 30.11 in 5.0 mi Calm Calm - N/A   Overcast
4:15 AM 44.6 °F - 42.8 °F 93% 30.11 in 5.0 mi Calm Calm - N/A   Overcast
4:35 AM 44.6 °F - 44.6 °F 100% 30.10 in 7.0 mi Calm Calm - N/A   Overcast
4:55 AM 46.4 °F - 44.6 °F 93% 30.10 in 7.0 mi Calm Calm - N/A   Overcast
5:15 AM 46.4 °F - 44.6 °F 93% 30.11 in 7.0 mi Calm Calm - N/A   Overcast
5:35 AM 46.4 °F - 44.6 °F 93% 30.10 in 7.0 mi Calm Calm - N/A   Overcast
5:55 AM 46.4 °F - 44.6 °F 93% 30.10 in 7.0 mi Calm Calm - N/A   Overcast
6:15 AM 48.2 °F - 44.6 °F 87% 30.10 in 7.0 mi Calm Calm - N/A   Overcast
6:55 AM 46.4 °F 45.2 °F 44.6 °F 93% 30.10 in 5.0 mi SW 3.5 mph - N/A   Mostly Cloudy
7:15 AM 46.4 °F 43.5 °F 44.6 °F 93% 30.10 in 5.0 mi SW 5.8 mph - N/A   Clear
7:35 AM 48.2 °F - 44.6 °F 87% 30.10 in 7.0 mi SW 4.6 mph - N/A   Clear
7:55 AM 50.0 °F - 44.6 °F 82% 30.09 in 7.0 mi SW 4.6 mph - N/A   Clear
8:15 AM 51.8 °F - 44.6 °F 76% 30.09 in 7.0 mi SW 5.8 mph - N/A   Clear
8:35 AM 53.6 °F - 42.8 °F 67% 30.09 in 10.0 mi SW 8.1 mph - N/A   Clear
8:55 AM 55.4 °F - 42.8 °F 63% 30.09 in 10.0 mi WSW 10.4 mph - N/A   Clear
9:15 AM 57.2 °F - 42.8 °F 59% 30.09 in 5.0 mi WSW 10.4 mph - N/A   Haze
9:35 AM 59.0 °F - 44.6 °F 59% 30.09 in 7.0 mi WSW 9.2 mph 18.4 mph N/A   Clear
9:55 AM 59.0 °F - 44.6 °F 59% 30.10 in 10.0 mi WSW 11.5 mph 18.4 mph N/A   Clear
10:15 AM 60.8 °F - 44.6 °F 55% 30.09 in 10.0 mi SW 9.2 mph 16.1 mph N/A   Scattered Clouds
10:35 AM 62.6 °F - 44.6 °F 52% 30.09 in 10.0 mi WSW 11.5 mph - N/A   Mostly Cloudy
10:55 AM 60.8 °F - 44.6 °F 55% 30.08 in 10.0 mi WSW 12.7 mph 17.3 mph N/A   Overcast
11:15 AM 62.6 °F - 46.4 °F 55% 30.07 in 10.0 mi WSW 6.9 mph - N/A   Overcast
11:35 AM 64.4 °F - 48.2 °F 56% 30.07 in 10.0 mi WSW 10.4 mph 18.4 mph N/A   Overcast
11:55 AM 64.4 °F - 48.2 °F 56% 30.05 in 10.0 mi WSW 9.2 mph 20.7 mph N/A   Mostly Cloudy
12:15 PM 66.2 °F - 48.2 °F 52% 30.04 in 10.0 mi SW 10.4 mph 16.1 mph N/A   Scattered Clouds
12:35 PM 66.2 °F - 50.0 °F 56% 30.04 in 10.0 mi WSW 13.8 mph 17.3 mph N/A   Clear
12:55 PM 64.4 °F - 50.0 °F 59% 30.03 in 10.0 mi WSW 9.2 mph - N/A   Scattered Clouds
1:15 PM 66.2 °F - 50.0 °F 56% 30.02 in 10.0 mi WSW 11.5 mph 20.7 mph N/A   Scattered Clouds
1:35 PM 66.2 °F - 50.0 °F 56% 29.99 in 10.0 mi SW 3.5 mph - N/A   Scattered Clouds
1:55 PM 64.4 °F - 50.0 °F 59% 29.99 in 10.0 mi WSW 16.1 mph - N/A   Scattered Clouds
2:15 PM 64.4 °F - 50.0 °F 59% 29.99 in 10.0 mi SW 8.1 mph - N/A   Scattered Clouds
2:35 PM 66.2 °F - 51.8 °F 60% 29.98 in 10.0 mi SW 6.9 mph - N/A   Clear
3:15 PM 66.2 °F - 51.8 °F 60% 29.96 in 10.0 mi SW 5.8 mph 16.1 mph N/A   Clear
3:35 PM 64.4 °F - 51.8 °F 64% 29.96 in 10.0 mi SW 8.1 mph - N/A   Clear
3:55 PM 64.4 °F - 51.8 °F 64% 29.96 in 10.0 mi SW 8.1 mph - N/A   Clear
4:15 PM 64.4 °F - 51.8 °F 64% 29.96 in 10.0 mi SW 4.6 mph - N/A   Clear
4:35 PM 62.6 °F - 51.8 °F 68% 29.97 in 10.0 mi WSW 4.6 mph - N/A   Clear
4:55 PM 60.8 °F - 51.8 °F 72% 29.96 in 10.0 mi Calm Calm - N/A   Clear
5:15 PM 59.0 °F - 51.8 °F 77% 29.96 in 10.0 mi Calm Calm - N/A   Clear
5:35 PM 57.2 °F - 51.8 °F 82% 29.97 in 10.0 mi SW 3.5 mph - N/A   Clear
5:55 PM 57.2 °F - 51.8 °F 82% 29.97 in 10.0 mi SW 3.5 mph - N/A   Scattered Clouds
6:15 PM 57.2 °F - 51.8 °F 82% 29.98 in 10.0 mi SW 4.6 mph - N/A   Scattered Clouds
6:35 PM 55.4 °F - 51.8 °F 88% 29.99 in 10.0 mi WSW 5.8 mph - N/A   Clear
6:55 PM 57.2 °F - 50.0 °F 77% 30.01 in 10.0 mi West 3.5 mph - N/A   Clear
7:35 PM 55.4 °F - 50.0 °F 82% 30.03 in 10.0 mi Calm Calm - N/A   Clear
7:55 PM 53.6 °F - 50.0 °F 88% 30.03 in 10.0 mi Calm Calm - N/A   Clear
8:55 PM 48.2 °F - 46.4 °F 93% 30.04 in 10.0 mi Calm Calm - N/A   Clear
9:15 PM 50.0 °F - 48.2 °F 94% 30.04 in 10.0 mi Calm Calm - N/A   Scattered Clouds
9:35 PM 48.2 °F - 48.2 °F 100% 30.03 in 7.0 mi Calm Calm - N/A   Overcast
9:55 PM 50.0 °F - 48.2 °F 94% 30.02 in 10.0 mi Calm Calm - N/A   Mostly Cloudy
10:35 PM 51.8 °F - 50.0 °F 94% 30.02 in 10.0 mi Calm Calm - N/A   Overcast
10:55 PM 51.8 °F - 50.0 °F 94% 30.02 in 10.0 mi WSW 3.5 mph - N/A   Overcast
11:35 PM 51.8 °F - 50.0 °F 94% 30.03 in 10.0 mi Calm Calm - N/A   Overcast
11:55 PM 51.8 °F - 50.0 °F 94% 30.04 in 10.0 mi Calm Calm - N/A   Overcast